Погода в Криушинском

Россия / Волгоградская область     51°07′23″N   42°07′44″E
темп.,
°C
ветер,
м/с
пор.,
м/с
влажн.,
%
обл.,
%
осадки,
мм/ч
давл.,
гПа
погр.,
м
6 марта, сб
сб600:00−5ссз1289100 0.0 101521
03:00−5ссв1291100 0.0 101621
06:00−6всв2294100 0.0 101529
09:00−4в2293100 0.0 1016136
12:00−2всв1191100 0.0 1015234
15:00−2всв1296100 1.4 1014208
18:00−3св1298100 1.9 101475
21:00−5св1297100 2.3 101523
7 марта, вс
вс700:00−6ссз249791 0.4 1015145
03:00−7сз589596 0.8 1017324
06:00−10зсз369473 0.1 1018140
09:00−6зюз498837 0.1 1018506
12:00−3зюз610741 0.0 10161133
15:00−2юз6127446 0.0 10121202
18:00−2юз81673100 0.0 1009821
21:00−2юз91775100 0.0 10071073
8 марта, пн
пн800:00−2з81396100 0.6 1006693
03:00−4зюз41081100 0.9 1007255
06:00−4юз5996100 0.2 1005298
09:00−1юз91588100 0.5 10041080
12:000з91576100 0.3 10051577
15:00−1зсз71276100 0.4 10061339
18:00−5зсз4117880 0.0 1006274
21:00−8зсз5138573 0.0 1010600
9 марта, вт
вт900:00−9зсз5128665 0.0 1012371
03:00−9з498732 0.0 1013210
06:00−9з49910 0.0 1014188
09:00−8зсз489116 0.0 1015545
12:00−6зсз4686100 0.1 1016815
15:00−6сз5783100 0.3 1016828
18:00−8сз3788100 0.0 1016195
21:00−11сз499293 0.0 1019276
10 марта, ср
ср1000:00−13сз389423 0.0 1021224
03:00−14зсз359534 0.0 1022113
06:00−13зюз34920 0.0 102179
09:00−8зюз613849 0.0 1020629
12:00−5зсз7128063 0.0 1019871
15:00−4зсз7117881 0.0 1019900
18:00−6з41178100 0.0 1018280
21:00−6з41081100 0.0 1019262